When you browse on this site, cookies collect data to enhance your experience and personalize the content and advertising you see.
Visit our Privacy Policy to learn more. By continuing to use the site, you agree to this use of cookies and data.
  • In Hungary
  • List of Countries
  • For 7 days
  • Water Temperature
  • Weather Map
  • News
  • Weather Widgets
  • user-avatar
    Login

    Hourly Weather Myzynivka

    Today, 22 August, Thursday

    Time Temperature Precipitation Wind Pressure Humidity
    00:00 +22°C° 0 mm 1 mps 748 mmHg 53%
    01:00 +21°C° 0 mm 1 mps 748 mmHg 56%
    02:00 +21°C° 0 mm 1 mps 748 mmHg 56%
    03:00 +21°C° 0 mm 1 mps 748 mmHg 58%
    04:00 +20°C° 0 mm 2 mps 748 mmHg 60%
    05:00 +19°C° 0 mm 2 mps 748 mmHg 61%
    06:00 +21°C° 0 mm 3 mps 748 mmHg 59%
    07:00 +23°C° 0 mm 4 mps 749 mmHg 57%
    08:00 +25°C° 0 mm 5 mps 749 mmHg 55%
    09:00 +27°C° 0 mm 5 mps 749 mmHg 52%
    10:00 +28°C° 0 mm 5 mps 749 mmHg 50%
    11:00 +30°C° 0 mm 5 mps 749 mmHg 47%
    12:00 +30°C° 0 mm 6 mps 749 mmHg 47%
    13:00 +32°C° 0 mm 6 mps 749 mmHg 47%
    14:00 +32°C° 0 mm 6 mps 749 mmHg 47%
    15:00 +30°C° 0 mm 7 mps 749 mmHg 50%
    16:00 +29°C° 0 mm 7 mps 749 mmHg 54%
    17:00 +28°C° 0 mm 7 mps 749 mmHg 58%
    18:00 +27°C° 0 mm 6 mps 749 mmHg 62%
    19:00 +24°C° 0 mm 6 mps 750 mmHg 67%
    20:00 +22°C° 0 mm 6 mps 750 mmHg 72%
    21:00 +21°C° 0 mm 6 mps 750 mmHg 76%
    22:00 +20°C° 0 mm 5 mps 750 mmHg 80%
    23:00 +19°C° 0 mm 5 mps 750 mmHg 83%

    Tomorrow, 23 August, Friday

    Time Temperature Precipitation Wind Pressure Humidity
    00:00 +19°C° 0 mm 5 mps 750 mmHg 86%
    01:00 +17°C° 0 mm 5 mps 751 mmHg 88%
    02:00 +18°C° 0 mm 4 mps 751 mmHg 90%
    03:00 +17°C° 0 mm 4 mps 751 mmHg 91%
    04:00 +17°C° 0 mm 4 mps 751 mmHg 92%
    05:00 +15°C° 0 mm 4 mps 750 mmHg 94%
    06:00 +17°C° 0 mm 4 mps 751 mmHg 88%
    07:00 +19°C° 0 mm 4 mps 751 mmHg 83%
    08:00 +20°C° 0 mm 5 mps 751 mmHg 78%
    09:00 +22°C° 0 mm 5 mps 751 mmHg 71%
    10:00 +25°C° 0 mm 5 mps 751 mmHg 65%
    11:00 +27°C° 0 mm 5 mps 751 mmHg 59%
    12:00 +27°C° 0 mm 5 mps 751 mmHg 57%
    13:00 +28°C° 0 mm 6 mps 751 mmHg 54%
    14:00 +28°C° 0 mm 6 mps 751 mmHg 52%
    15:00 +28°C° 0 mm 6 mps 751 mmHg 53%
    16:00 +28°C° 0 mm 6 mps 751 mmHg 54%
    17:00 +27°C° 0 mm 6 mps 751 mmHg 55%
    18:00 +25°C° 0 mm 5 mps 751 mmHg 61%
    19:00 +22°C° 0 mm 5 mps 751 mmHg 68%
    20:00 +21°C° 0 mm 4 mps 751 mmHg 74%
    21:00 +20°C° 0 mm 4 mps 751 mmHg 75%
    22:00 +19°C° 0 mm 4 mps 751 mmHg 76%
    23:00 +18°C° 0 mm 4 mps 751 mmHg 78%

    Day after tomorrow, 24 August, Saturday

    Time Temperature Precipitation Wind Pressure Humidity
    00:00 +17°C° 0 mm 4 mps 751 mmHg 80%
    01:00 +17°C° 0 mm 4 mps 751 mmHg 83%
    02:00 +16°C° 0 mm 3 mps 751 mmHg 85%
    03:00 +16°C° 0 mm 3 mps 751 mmHg 88%
    04:00 +14°C° 0 mm 3 mps 751 mmHg 91%
    05:00 +14°C° 0 mm 3 mps 751 mmHg 93%
    06:00 +17°C° 0 mm 4 mps 751 mmHg 86%
    07:00 +18°C° 0 mm 4 mps 751 mmHg 78%
    08:00 +20°C° 0 mm 4 mps 751 mmHg 71%
    09:00 +22°C° 0 mm 4 mps 751 mmHg 64%
    10:00 +25°C° 0 mm 4 mps 751 mmHg 58%
    11:00 +27°C° 0 mm 4 mps 751 mmHg 51%
    12:00 +28°C° 0 mm 4 mps 751 mmHg 48%
    13:00 +29°C° 0 mm 4 mps 751 mmHg 44%
    14:00 +30°C° 0 mm 3 mps 751 mmHg 41%
    15:00 +29°C° 0 mm 4 mps 750 mmHg 42%
    16:00 +29°C° 0 mm 4 mps 750 mmHg 43%
    17:00 +29°C° 0 mm 4 mps 750 mmHg 43%
    18:00 +27°C° 0 mm 4 mps 750 mmHg 47%
    19:00 +25°C° 0 mm 4 mps 750 mmHg 51%
    20:00 +22°C° 0 mm 4 mps 750 mmHg 55%
    21:00 +21°C° 0 mm 4 mps 750 mmHg 57%
    22:00 +20°C° 0 mm 4 mps 750 mmHg 59%
    23:00 +19°C° 0 mm 4 mps 750 mmHg 61%

    25 August, Sunday

    Time Temperature Precipitation Wind Pressure Humidity
    00:00 +19°C° 0 mm 4 mps 750 mmHg 64%
    01:00 +18°C° 0 mm 3 mps 750 mmHg 67%
    02:00 +17°C° 0 mm 3 mps 750 mmHg 70%
    03:00 +17°C° 0 mm 3 mps 750 mmHg 70%
    04:00 +16°C° 0 mm 3 mps 750 mmHg 71%
    05:00 +16°C° 0 mm 3 mps 750 mmHg 71%
    06:00 +18°C° 0 mm 3 mps 750 mmHg 65%
    07:00 +19°C° 0 mm 3 mps 750 mmHg 59%
    08:00 +21°C° 0 mm 4 mps 751 mmHg 53%
    09:00 +23°C° 0 mm 4 mps 751 mmHg 46%
    10:00 +25°C° 0 mm 4 mps 751 mmHg 40%
    11:00 +27°C° 0 mm 4 mps 751 mmHg 34%
    12:00 +28°C° 0 mm 4 mps 751 mmHg 32%
    13:00 +29°C° 0 mm 4 mps 751 mmHg 30%
    14:00 +30°C° 0 mm 4 mps 750 mmHg 27%
    15:00 +29°C° 0 mm 4 mps 750 mmHg 28%
    16:00 +29°C° 0 mm 4 mps 750 mmHg 29%
    17:00 +28°C° 0 mm 4 mps 750 mmHg 30%
    18:00 +26°C° 0 mm 4 mps 750 mmHg 34%
    19:00 +24°C° 0 mm 3 mps 750 mmHg 39%
    20:00 +21°C° 0 mm 3 mps 750 mmHg 44%
    21:00 +20°C° 0 mm 3 mps 750 mmHg 48%
    22:00 +19°C° 0 mm 3 mps 751 mmHg 53%
    23:00 +18°C° 0 mm 3 mps 751 mmHg 57%

    26 August, Monday

    Time Temperature Precipitation Wind Pressure Humidity
    00:00 +18°C° 0 mm 3 mps 751 mmHg 64%
    01:00 +17°C° 0 mm 3 mps 751 mmHg 70%
    02:00 +17°C° 0 mm 3 mps 751 mmHg 76%
    03:00 +16°C° 0 mm 3 mps 751 mmHg 82%
    04:00 +16°C° 0 mm 3 mps 751 mmHg 87%
    05:00 +14°C° 0 mm 3 mps 751 mmHg 93%
    06:00 +17°C° 0 mm 3 mps 751 mmHg 85%
    07:00 +19°C° 0 mm 3 mps 751 mmHg 76%
    08:00 +22°C° 0 mm 4 mps 752 mmHg 67%
    09:00 +23°C° 0 mm 4 mps 752 mmHg 60%
    10:00 +26°C° 0 mm 4 mps 752 mmHg 52%
    11:00 +28°C° 0 mm 5 mps 752 mmHg 45%
    12:00 +28°C° 0 mm 4 mps 752 mmHg 42%
    13:00 +29°C° 0 mm 4 mps 751 mmHg 39%
    14:00 +30°C° 0 mm 4 mps 751 mmHg 36%
    15:00 +29°C° 0 mm 4 mps 751 mmHg 37%
    16:00 +29°C° 0 mm 4 mps 750 mmHg 38%
    17:00 +28°C° 0 mm 4 mps 750 mmHg 38%
    18:00 +26°C° 0 mm 4 mps 750 mmHg 43%
    19:00 +24°C° 0 mm 3 mps 750 mmHg 47%
    20:00 +20°C° 0 mm 3 mps 750 mmHg 52%
    21:00 +20°C° 0 mm 3 mps 750 mmHg 53%
    22:00 +19°C° 0 mm 3 mps 750 mmHg 55%
    23:00 +18°C° 0 mm 3 mps 751 mmHg 56%

    27 August, Tuesday

    Time Temperature Precipitation Wind Pressure Humidity
    00:00 +17°C° 0 mm 3 mps 750 mmHg 59%
    01:00 +17°C° 0 mm 3 mps 750 mmHg 62%
    02:00 +16°C° 0 mm 2 mps 750 mmHg 64%
    03:00 +16°C° 0 mm 2 mps 750 mmHg 65%
    04:00 +15°C° 0 mm 2 mps 750 mmHg 66%
    05:00 +15°C° 0 mm 2 mps 750 mmHg 66%
    06:00 +17°C° 0 mm 2 mps 750 mmHg 60%
    07:00 +19°C° 0 mm 2 mps 750 mmHg 53%
    08:00 +21°C° 0 mm 2 mps 750 mmHg 47%
    09:00 +24°C° 0 mm 2 mps 750 mmHg 42%
    10:00 +26°C° 0 mm 2 mps 749 mmHg 38%
    11:00 +27°C° 0 mm 2 mps 749 mmHg 33%
    12:00 +28°C° 0 mm 2 mps 749 mmHg 31%
    13:00 +29°C° 0 mm 2 mps 749 mmHg 29%
    14:00 +29°C° 0 mm 2 mps 748 mmHg 27%
    15:00 +29°C° 0 mm 2 mps 748 mmHg 28%
    16:00 +29°C° 0 mm 3 mps 748 mmHg 28%
    17:00 +29°C° 0 mm 3 mps 747 mmHg 29%
    18:00 +26°C° 0 mm 2 mps 747 mmHg 35%
    19:00 +23°C° 0 mm 2 mps 747 mmHg 41%
    20:00 +20°C° 0 mm 2 mps 747 mmHg 46%
    21:00 +19°C° 0 mm 2 mps 747 mmHg 49%
    22:00 +18°C° 0 mm 2 mps 747 mmHg 51%
    23:00 +18°C° 0 mm 2 mps 747 mmHg 53%
    Show more